TimeCST,TemperatureF,Dew PointF,Humidity,Sea Level PressureIn,VisibilityMPH,Wind Direction,Wind SpeedMPH,Gust SpeedMPH,PrecipitationIn,Events,Conditions,WindDirDegrees,DateUTC
12:53 AM,30.9,23.0,72,30.16,10.0,ESE,5.8,-,N/A,,Clear,110,2013-02-19 06:53:00
1:53 AM,30.0,21.9,72,30.18,10.0,Calm,Calm,-,N/A,,Clear,0,2013-02-19 07:53:00
2:53 AM,28.0,21.9,78,30.19,10.0,NE,8.1,-,N/A,,Clear,50,2013-02-19 08:53:00
3:53 AM,28.0,21.0,75,30.19,10.0,ENE,10.4,-,N/A,,Clear,60,2013-02-19 09:53:00
4:53 AM,28.0,21.9,78,30.20,10.0,ENE,8.1,-,N/A,,Clear,70,2013-02-19 10:53:00
5:53 AM,27.0,21.0,78,30.23,10.0,ENE,8.1,-,N/A,,Clear,60,2013-02-19 11:53:00
6:53 AM,24.1,19.9,84,30.29,10.0,West,6.9,-,N/A,,Clear,260,2013-02-19 12:53:00
7:53 AM,26.1,21.9,84,30.30,10.0,NNE,6.9,-,N/A,,Clear,30,2013-02-19 13:53:00
8:53 AM,37.0,26.1,65,30.32,10.0,Calm,Calm,-,N/A,,Clear,0,2013-02-19 14:53:00
9:53 AM,41.0,25.0,53,30.32,10.0,Calm,Calm,-,N/A,,Clear,0,2013-02-19 15:53:00
10:53 AM,46.0,28.0,50,30.32,10.0,SE,8.1,-,N/A,,Clear,130,2013-02-19 16:53:00
12:53 PM,52.0,23.0,32,30.27,10.0,SE,9.2,-,N/A,,Clear,140,2013-02-19 18:53:00
1:53 PM,54.0,24.1,31,30.23,10.0,South,13.8,17.3,N/A,,Clear,170,2013-02-19 19:53:00
2:53 PM,54.0,21.9,29,30.20,10.0,SE,11.5,-,N/A,,Clear,140,2013-02-19 20:53:00
3:53 PM,55.0,21.0,27,30.17,10.0,SSE,16.1,-,N/A,,Clear,150,2013-02-19 21:53:00
4:53 PM,54.0,21.9,29,30.16,10.0,SE,15.0,-,N/A,,Clear,140,2013-02-19 22:53:00
6:53 PM,46.0,21.9,39,30.17,10.0,SE,9.2,-,N/A,,Clear,140,2013-02-20 00:53:00
7:53 PM,44.1,24.1,45,30.18,10.0,ESE,9.2,-,N/A,,Clear,120,2013-02-20 01:53:00
8:53 PM,42.1,26.1,53,30.15,10.0,ESE,9.2,-,N/A,,Clear,110,2013-02-20 02:53:00
9:53 PM,46.9,24.1,41,30.15,10.0,SE,12.7,-,N/A,,Scattered Clouds,140,2013-02-20 03:53:00
10:53 PM,48.0,23.0,37,30.14,10.0,SE,13.8,-,N/A,,Scattered Clouds,140,2013-02-20 04:53:00
11:53 PM,48.2,21.2,34,30.11,10.0,SE,16.1,-,N/A,,Overcast,140,2013-02-20 05:53:00